Date,TemperatureHighF,TemperatureAvgF,TemperatureLowF,DewpointHighF,DewpointAvgF,DewpointLowF,HumidityHigh,HumidityAvg,HumidityLow,PressureMaxIn,PressureMinIn,WindSpeedMaxMPH,WindSpeedAvgMPH,GustSpeedMaxMPH,PrecipitationSumIn
2012-1-1,59,43,29,50,37,28,98,81,56,30.07,29.69,10,2,24,0.01
2012-1-3,21,20,20,18,18,18,91,90,89,30.12,30.11,2,2,6,0.00
2012-1-5,44,36,30,31,27,25,87,70,52,30.12,29.98,2,1,9,0.00
2012-1-6,63,47,30,36,31,26,85,56,33,29.99,29.83,3,1,12,0.00
2012-1-7,58,48,33,51,38,28,94,68,42,30.12,29.81,4,1,12,0.02
2012-1-8,47,34,26,33,29,24,96,81,55,30.32,30.13,2,0,6,0.00
2012-1-9,43,35,28,39,32,26,93,88,82,30.25,30.04,1,0,4,0.00
2012-1-10,50,36,26,35,31,25,98,85,53,30.12,29.97,3,0,9,0.00
2012-1-11,54,41,27,48,38,26,99,91,80,29.97,29.42,3,1,11,0.20
2012-1-12,49,46,30,47,44,28,96,93,81,29.59,29.35,6,1,17,0.09
2012-1-13,29,22,18,26,18,14,92,83,73,29.98,29.59,6,4,21,0.00
2012-1-14,30,24,20,22,20,17,92,82,67,30.19,30.09,2,1,10,0.01
2012-1-15,30,23,19,22,19,16,91,83,64,30.51,30.17,3,0,9,0.00
2012-1-16,55,28,16,33,20,14,94,77,31,30.45,30.14,5,1,12,0.02
2012-1-17,62,51,41,55,45,33,97,80,55,30.00,29.64,7,3,21,0.52
2012-1-18,40,31,25,33,23,17,85,73,58,30.20,29.93,5,2,19,0.00
2012-1-19,42,31,21,23,19,15,91,63,35,30.16,29.90,5,1,12,0.00
2012-1-20,39,33,28,38,27,23,97,81,62,30.20,29.85,3,1,7,0.05
2012-1-21,49,37,30,46,35,29,97,94,84,30.16,29.71,7,1,15,0.12
2012-1-22,54,40,30,42,35,28,98,83,61,30.22,30.01,6,1,10,0.01
2012-1-23,64,56,50,52,47,40,87,71,58,29.98,29.65,8,3,18,0.06
2012-1-24,54,46,35,40,36,31,84,70,53,30.31,29.93,4,2,12,0.00
2012-1-25,34,32,30,31,30,28,94,92,86,30.34,30.28,1,0,6,0.00
2012-1-26,63,50,41,56,47,37,99,92,77,30.10,29.45,4,0,10,0.27
2012-1-27,65,45,36,58,43,34,95,91,74,30.07,29.35,7,2,17,0.40
2012-1-28,44,38,31,40,30,18,96,76,46,30.25,29.96,7,2,22,0.02
2012-1-29,46,35,24,31,21,18,84,59,34,30.29,30.04,9,2,20,0.00
2012-1-30,54,39,22,29,23,18,90,56,37,30.38,30.18,4,1,12,0.00
2012-1-31,67,55,44,34,30,27,57,39,27,30.23,30.03,4,1,12,0.00
2012-2-1,60,58,51,40,33,30,66,39,33,30.08,30.02,4,2,11,0.02
2012-2-5,45,37,29,37,34,28,97,90,64,30.25,30.00,2,0,7,0.03
2012-2-6,49,36,26,38,31,25,98,83,54,30.26,30.10,2,0,7,0.00
2012-2-7,51,38,26,35,31,25,98,78,49,30.23,30.13,2,0,7,0.00
2012-2-8,33,32,30,32,30,28,96,94,90,30.26,30.14,3,0,9,0.08
2012-2-9,33,31,26,29,25,23,92,81,67,30.35,30.23,2,0,6,0.02
2012-2-10,37,32,28,31,28,25,97,88,72,30.23,29.92,1,0,6,0.03
2012-2-11,31,22,12,30,19,6,97,89,74,30.28,29.80,7,1,16,0.00
2012-2-12,15,14,14,12,10,7,90,84,76,30.29,30.26,4,1,10,0.00
2012-2-13,37,26,12,27,19,10,91,76,54,30.32,30.05,2,0,6,0.08
2012-2-14,47,37,30,39,32,26,95,84,59,30.07,29.90,4,1,10,0.02
2012-2-15,52,42,36,40,35,31,92,77,54,30.29,30.07,3,1,10,0.01
2012-2-16,52,48,44,49,44,35,98,88,61,30.09,29.94,5,1,15,0.14
2012-2-17,50,42,31,44,34,28,92,73,48,30.15,30.04,6,2,13,0.00
2012-2-18,56,38,25,36,29,24,96,72,40,30.11,29.95,6,1,13,0.00
2012-2-19,39,39,39,27,27,27,62,62,62,30.04,30.03,1,0,3,0.00
2012-2-21,55,41,24,40,30,21,92,66,44,30.21,29.83,6,2,18,0.00
2012-2-22,61,50,41,44,38,34,94,67,37,29.84,29.48,6,2,17,0.05
2012-2-23,58,50,44,48,43,41,94,77,56,29.62,29.35,2,1,7,0.09
2012-2-24,62,50,33,58,44,30,98,81,48,29.84,29.36,10,3,33,0.44
2012-2-25,34,31,24,30,22,18,94,72,57,30.38,29.83,8,3,22,0.00
2012-2-26,51,33,19,26,21,17,93,66,29,30.48,30.28,2,0,7,0.01
2012-2-27,65,49,28,39,32,24,90,57,36,30.34,30.19,6,2,15,0.00
2012-2-28,63,45,27,32,26,21,90,52,21,30.44,30.11,4,0,11,0.00
2012-2-29,66,56,41,61,52,32,97,85,57,30.11,29.61,5,1,17,1.41
2012-3-1,58,55,48,55,46,38,90,74,61,29.73,29.62,6,3,14,0.00
2012-3-2,59,40,31,47,37,30,98,89,54,29.87,29.66,4,1,10,0.10
2012-3-10,53,38,26,27,22,18,88,56,30,30.56,30.42,3,0,10,0.00
2012-3-11,70,49,28,39,31,25,91,58,26,30.47,30.27,3,1,7,0.00
2012-3-12,58,50,41,58,46,36,99,88,63,30.26,30.07,1,0,3,0.21
2012-3-13,76,65,55,60,56,53,99,75,50,30.09,29.98,3,1,12,0.01
2012-3-14,80,61,44,57,50,43,99,71,34,30.20,30.08,3,0,12,0.00
2012-3-15,66,56,46,56,50,45,96,82,62,30.25,30.10,3,0,10,0.04
2012-3-16,71,60,51,59,55,49,99,82,63,30.17,30.09,3,1,6,0.03
2012-3-17,57,55,53,53,53,52,95,93,89,30.15,30.13,0,0,0,0.00
2012-3-18,73,60,52,60,56,52,100,86,59,30.24,30.07,2,0,5,0.00
2012-3-19,80,66,57,65,60,55,99,83,57,30.15,30.02,6,1,14,1.20
2012-3-20,86,69,53,62,57,53,100,72,39,30.15,30.01,4,0,5,0.00
2012-3-21,86,69,53,60,57,52,98,69,36,30.16,30.00,4,1,7,0.00
2012-3-22,82,60,55,61,56,54,100,88,49,30.14,30.07,3,0,4,0.00
2012-3-23,84,67,53,67,58,51,96,74,45,30.02,29.80,5,1,14,0.06
2012-3-24,70,61,57,61,56,52,97,84,62,29.88,29.70,5,1,19,0.06
2012-3-25,67,59,53,57,54,52,99,84,69,29.88,29.72,5,1,14,0.01
2012-3-26,60,54,42,53,40,23,91,63,35,30.23,29.88,6,2,17,0.00
2012-3-27,65,47,30,30,23,18,75,43,19,30.34,30.07,2,1,7,0.00
2012-3-28,81,62,43,64,49,29,91,64,44,30.07,29.70,10,2,27,0.53
2012-3-29,66,57,48,50,42,39,81,60,40,29.97,29.80,4,1,14,0.00
2012-3-30,74,56,42,58,48,40,96,77,55,29.98,29.68,4,0,6,0.07
2012-3-31,70,57,49,57,52,44,97,83,58,29.87,29.69,7,2,15,0.00
2012-4-1,49,48,47,44,43,43,87,85,84,29.88,29.81,1,0,5,0.00
2012-4-4,75,63,53,60,52,43,88,69,52,29.77,29.63,5,1,18,0.00
2012-4-5,62,53,44,43,32,27,61,46,27,29.85,29.72,3,1,11,0.00
2012-4-6,53,45,38,34,32,29,78,60,45,30.06,29.86,4,1,9,0.00
2012-4-9,63,53,36,40,33,27,83,49,36,30.03,29.77,7,2,22,0.00
2012-4-10,54,51,48,33,31,30,52,46,40,29.84,29.81,2,0,5,0.00
2012-4-11,45,40,34,31,28,26,79,63,49,30.17,29.93,6,2,22,0.00
2012-4-12,58,43,28,35,31,27,94,66,38,30.28,30.12,4,1,14,0.00
2012-4-13,68,53,36,37,33,28,88,53,26,30.24,30.14,3,1,7,0.00
2012-4-14,73,55,38,56,43,34,96,68,37,30.19,30.00,10,1,20,0.04
2012-4-15,76,58,50,59,53,49,99,85,54,30.07,29.97,5,1,12,0.00
2012-4-16,87,74,61,61,57,51,75,57,40,30.05,29.89,6,2,23,0.00
2012-4-17,69,60,52,52,43,38,71,53,37,30.27,30.05,4,1,13,0.00
2012-4-18,54,52,50,53,49,40,98,88,61,30.19,30.05,2,0,4,0.14
2012-4-19,74,60,51,53,51,48,99,75,42,30.09,29.89,3,1,9,0.00
2012-4-20,80,63,44,56,51,43,98,69,39,29.93,29.69,4,1,10,0.00
2012-4-21,63,55,46,56,52,45,99,89,73,29.84,29.67,7,1,16,0.36
2012-4-22,46,44,40,45,42,38,97,94,88,29.83,29.65,5,1,12,0.03
2012-4-23,44,37,33,41,36,32,98,95,81,29.65,29.54,5,2,14,0.25
2012-4-24,60,48,37,32,28,25,71,46,29,29.71,29.57,8,2,21,0.00
2012-4-25,66,53,38,50,38,31,93,61,35,29.85,29.72,4,1,10,0.02
2012-4-26,58,54,51,58,53,49,99,98,92,29.76,29.57,7,1,12,0.33
2012-4-27,60,51,42,51,39,32,95,65,36,30.17,29.86,4,1,11,0.00
2012-4-28,66,49,42,54,44,34,97,82,60,30.19,29.98,4,0,11,0.24
2012-4-29,73,56,45,56,49,44,98,80,46,30.21,30.07,2,0,6,0.01
2012-4-30,86,68,46,66,56,45,97,71,40,30.12,29.88,3,1,12,0.00
2012-5-1,80,70,63,67,64,61,97,83,61,30.02,29.86,9,1,23,0.50
2012-5-2,86,72,61,70,65,61,100,82,51,30.04,29.93,5,0,15,0.95
2012-5-3,88,73,59,70,65,58,100,78,46,30.07,29.93,2,0,7,0.00
2012-5-4,75,67,62,69,65,62,100,93,80,30.07,29.86,2,0,7,1.19
2012-5-5,72,66,64,68,65,64,100,97,83,29.94,29.80,1,0,5,0.63
2012-5-6,77,67,61,69,65,61,100,93,72,29.99,29.87,3,0,5,0.00
2012-5-7,82,69,59,69,64,59,100,86,63,29.92,29.76,2,0,6,0.08
2012-5-8,70,66,62,68,63,60,99,93,78,29.82,29.72,2,0,5,0.69
2012-5-9,64,58,52,61,56,51,100,95,69,29.82,29.68,5,0,14,0.16
2012-5-10,63,54,47,51,47,42,99,80,47,29.99,29.73,3,0,9,0.00
2012-5-11,68,54,40,49,43,38,99,71,38,30.20,29.99,2,0,7,0.00
2012-5-12,76,58,42,56,49,41,98,75,44,30.28,30.14,2,0,6,0.01
2012-5-13,70,61,56,64,58,54,99,90,73,30.15,30.03,1,0,4,0.43
2012-5-14,67,62,59,64,61,59,100,97,89,30.03,29.89,1,0,6,0.44
2012-5-15,69,63,58,64,61,58,100,92,76,29.97,29.90,0,0,3,0.00
2012-5-16,77,65,53,64,58,53,100,81,49,29.96,29.85,1,0,4,0.00
2012-5-17,71,62,53,58,52,44,94,71,44,30.06,29.93,2,0,6,0.00
2012-5-18,79,64,48,63,55,46,98,76,47,30.08,29.97,2,0,6,0.00
2012-5-19,79,66,54,64,59,53,99,79,51,30.11,30.01,2,0,6,0.00
2012-5-20,82,69,54,63,59,53,99,74,44,30.15,29.97,2,0,7,0.00
2012-5-21,81,69,56,64,60,55,98,76,52,29.98,29.78,2,0,6,0.00
2012-5-22,70,65,60,65,62,59,97,90,79,29.86,29.79,1,0,4,0.00
2012-5-23,77,66,60,67,64,60,100,92,66,29.86,29.81,2,0,7,0.00
2012-5-24,79,69,59,70,64,59,100,87,64,29.94,29.85,3,0,5,0.00
2012-5-25,86,74,61,72,66,60,98,77,52,30.05,29.92,2,0,5,0.00
2012-5-26,87,75,63,75,69,62,99,84,58,30.11,29.99,1,0,3,0.00
2012-5-27,89,75,67,76,70,66,100,85,60,30.05,29.94,3,0,6,0.00
2012-5-28,88,76,63,74,69,62,99,81,56,30.00,29.84,1,0,4,0.00
2012-5-29,87,73,67,73,68,65,99,86,61,29.85,29.72,4,0,18,0.11
2012-5-30,82,71,64,68,66,61,100,85,53,29.80,29.70,5,0,10,0.00
2012-5-31,80,69,59,63,60,55,100,77,43,29.85,29.72,1,0,5,0.00
2012-6-1,71,65,58,68,61,54,98,89,70,29.77,29.53,3,0,16,0.38
2012-6-2,67,60,52,55,51,48,89,74,55,29.86,29.77,2,0,6,0.00
2012-6-3,75,62,49,59,54,48,98,76,49,29.87,29.74,3,0,10,0.00
2012-6-4,76,53,55,64,30,-100,98,66,48,29.75,29.65,3,-168,7,0.17
2012-6-5,67,43,52,58,6,-100,99,51,58,29.86,29.71,2,-268,7,0.00
2012-6-6,68,47,56,60,20,-100,99,67,67,29.98,29.84,1,-226,5,0.03
2012-6-7,75,49,52,61,16,-100,100,55,52,30.05,29.93,2,-241,9,0.00
2012-6-8,79,49,51,60,8,-100,99,45,45,30.06,29.91,2,-297,7,0.00
2012-6-9,81,54,53,64,20,-100,98,51,46,30.02,29.91,1,-250,5,0.00
2012-6-10,85,61,55,69,35,-100,99,59,47,30.05,29.94,1,0,5,0.00
2012-6-11,78,53,63,71,24,-100,96,66,75,30.00,29.91,1,-236,3,0.04
2012-6-12,82,58,69,74,31,-100,100,66,73,29.88,29.77,2,0,5,0.01
2012-6-13,77,50,58,68,7,-100,96,43,40,30.04,29.87,3,0,11,0.01
2012-6-14,83,66,48,61,55,47,97,72,43,30.10,30.02,1,0,6,0.00
2012-6-15,83,71,57,64,60,56,97,71,47,30.17,30.05,1,0,5,0.00
2012-6-16,84,71,57,64,60,56,98,71,48,30.21,30.03,1,0,5,0.00
2012-6-17,81,72,61,70,64,57,97,78,65,30.04,29.89,2,0,6,0.13
2012-6-18,77,70,65,73,68,64,100,95,76,29.98,29.87,1,0,6,0.23
2012-6-19,88,76,66,73,70,66,100,82,57,30.08,29.97,2,0,6,0.00
2012-6-20,90,77,66,73,70,65,100,80,53,30.13,29.98,1,0,5,0.00
2012-6-21,90,78,67,76,71,67,100,81,57,30.01,29.82,3,0,11,0.00
2012-6-22,88,74,68,73,69,66,98,85,54,29.86,29.79,4,0,11,0.00
2012-6-23,85,73,65,69,65,59,100,78,43,29.98,29.86,2,0,7,0.00
2012-6-24,86,74,59,67,62,58,98,70,43,29.98,29.84,3,0,10,0.00
2012-6-25,80,70,59,66,59,49,97,72,45,29.88,29.77,3,0,9,0.00
2012-6-26,75,64,49,54,50,47,94,64,44,29.96,29.86,3,1,12,0.00
2012-6-27,83,66,49,60,55,48,97,70,40,30.02,29.89,3,0,9,0.00
2012-6-28,95,76,55,70,62,54,97,66,35,29.93,29.74,4,0,9,0.00
2012-6-29,98,87,74,77,70,64,80,60,48,29.81,29.65,3,0,7,0.00
2012-6-30,92,77,63,76,70,63,100,81,54,29.89,29.75,2,0,6,0.00
2012-7-1,92,79,67,75,71,66,100,80,49,29.97,29.80,9,0,26,0.43
2012-7-2,88,75,64,72,68,64,100,81,51,30.01,29.91,2,0,6,0.00
2012-7-3,91,74,66,75,70,65,100,88,56,29.96,29.85,5,0,21,0.09
2012-7-4,93,79,66,76,71,66,100,80,54,29.94,29.80,2,0,6,0.00
2012-7-5,89,79,70,75,72,69,98,79,52,29.94,29.83,5,0,16,0.00
2012-7-6,94,81,69,77,72,68,98,77,54,29.96,29.85,2,0,5,0.00
2012-7-7,97,84,71,77,74,71,100,76,46,29.93,29.81,1,0,6,0.00
2012-7-8,98,82,72,77,74,71,98,78,49,29.88,29.77,4,0,14,0.00
2012-7-13,73,66,60,68,64,59,100,94,65,30.17,30.08,1,0,6,1.06
2012-7-14,88,76,66,74,70,66,100,84,59,30.11,29.99,2,0,6,0.04
2012-7-15,87,78,68,74,71,67,100,81,62,30.09,29.96,3,0,13,0.17
2012-7-16,89,77,68,76,71,68,100,85,59,30.01,29.85,2,0,7,0.01
2012-7-17,92,79,67,76,72,66,100,82,56,29.93,29.80,1,0,4,0.00
2012-7-18,92,76,70,79,73,67,99,91,63,29.95,29.79,9,0,22,0.62
2012-7-19,89,75,69,76,71,69,100,90,62,29.98,29.81,4,0,5,0.12
2012-7-20,74,71,68,73,71,68,100,99,95,29.89,29.80,0,0,3,0.82
2012-7-21,79,73,69,72,70,69,100,93,76,30.00,29.87,2,0,6,0.04
2012-7-22,85,74,65,70,68,65,100,84,58,30.11,30.02,2,0,5,0.00
2012-7-23,84,74,67,77,72,66,100,93,76,30.08,29.92,1,0,10,0.09
2012-7-24,82,79,76,77,74,73,92,86,84,29.91,29.82,1,0,6,0.00
2012-7-25,86,76,69,75,70,68,99,83,60,29.92,29.78,1,0,4,0.00
2012-7-26,76,74,73,73,72,72,98,95,92,29.77,29.72,0,0,2,1.17
2012-7-27,82,73,68,76,71,68,100,94,77,29.88,29.73,0,0,3,1.08
2012-7-28,81,72,67,71,68,66,99,89,68,29.97,29.82,1,0,4,0.20
2012-7-29,81,71,66,69,66,65,100,86,62,30.04,29.94,1,0,6,0.01
2012-7-30,82,70,63,75,67,62,100,91,70,29.99,29.88,2,0,5,0.30
2012-7-31,86,74,65,74,70,65,100,87,67,29.91,29.79,1,0,4,0.00
2012-8-1,84,73,64,74,69,64,100,88,68,29.87,29.76,1,0,4,0.00
2012-8-2,87,76,66,74,70,66,100,85,56,29.86,29.80,1,0,6,0.00
2012-8-3,88,76,67,76,71,66,100,86,63,29.96,29.83,2,0,6,0.00
2012-8-4,72,72,72,71,70,70,96,96,95,29.95,29.94,0,0,0,0.00
2012-8-5,82,76,69,76,71,68,100,86,73,30.06,29.96,3,0,16,1.13
2012-8-6,81,74,69,75,72,69,100,94,75,30.07,29.94,0,0,3,0.05
2012-8-7,84,74,68,73,70,65,100,89,54,29.97,29.89,0,0,1,0.00
2012-8-16,83,70,60,69,64,60,100,84,57,30.01,29.84,1,0,5,0.00
2012-8-17,67,66,65,65,64,64,95,94,93,29.89,29.86,0,0,0,0.00
2012-8-18,77,68,62,66,63,61,100,86,60,29.92,29.81,1,0,5,0.01
2012-8-19,79,65,59,67,62,59,100,93,62,29.87,29.78,1,0,6,0.71
2012-8-20,76,67,60,66,62,59,100,87,58,29.94,29.81,2,0,7,0.01
2012-8-21,79,66,55,63,59,55,100,80,45,30.04,29.94,1,0,4,0.00
2012-8-22,81,69,57,64,60,57,100,77,48,30.11,30.02,1,0,4,0.00
2012-8-23,84,67,58,68,62,58,100,86,48,30.13,30.03,1,0,6,0.00
2012-8-24,85,71,60,68,64,60,100,83,53,30.12,30.00,1,0,4,0.00
2012-8-25,83,70,60,70,63,60,100,83,50,30.14,30.05,1,0,6,0.00
2012-8-26,83,68,58,68,62,58,100,85,58,30.14,30.01,1,0,4,0.00
2012-10-6,57,34,44,56,-2,-100,98,58,67,30.09,29.79,2,0,5,0.00
2012-10-7,52,31,40,48,-5,-100,98,58,76,30.18,30.00,2,0,7,0.00
2012-10-8,43,5,42,43,-84,-100,99,11,99,30.25,30.12,0,0,2,0.01
2012-10-9,55,30,44,47,-11,-100,98,52,75,30.17,30.00,1,0,4,0.00
2012-10-10,59,37,44,52,2,-100,98,57,70,30.16,29.92,4,1,10,0.00
2012-10-11,60,30,34,41,-18,-100,98,39,43,30.32,30.11,1,0,5,0.00
2012-10-12,60,30,36,46,-16,-100,98,44,57,30.36,30.15,3,0,7,0.01
2012-10-13,72,52,38,52,44,37,100,77,47,30.35,30.09,2,0,6,0.00
2012-10-14,78,60,49,61,53,47,97,80,52,30.10,29.88,2,0,10,0.00
2012-10-15,70,60,48,62,53,44,95,80,59,29.90,29.68,6,1,16,0.10
2012-10-16,61,49,42,46,43,41,98,82,51,29.99,29.86,2,0,6,0.00
2012-10-17,74,53,38,54,44,37,99,75,37,29.93,29.73,2,0,6,0.00
2012-10-18,72,60,52,60,50,47,99,72,53,29.78,29.55,6,1,15,0.33
2012-10-19,67,56,45,55,45,40,100,73,39,29.75,29.56,6,1,13,0.01
2012-10-20,56,51,46,46,43,40,91,76,60,29.96,29.71,3,0,14,0.00
2012-10-21,60,48,38,46,41,37,98,80,53,30.15,29.96,2,0,6,0.00
2012-10-22,77,52,37,56,45,36,99,81,48,30.21,30.07,2,0,6,0.00
2012-10-23,77,61,50,58,54,49,98,80,48,30.10,30.00,0,0,0,0.00
2012-10-24,79,63,53,58,54,52,97,76,43,30.15,30.01,0,0,0,0.00
2012-10-25,56,51,48,52,50,47,97,94,88,30.08,30.03,0,0,0,0.00
2012-10-26,79,67,53,60,55,51,93,69,47,30.05,29.88,0,0,0,0.00
2012-10-27,61,53,47,55,51,46,97,92,80,29.95,29.85,1,0,7,0.06
2012-10-28,47,46,44,46,45,44,98,97,96,29.94,29.79,1,0,5,0.28
2012-10-29,43,38,35,42,37,34,98,96,95,29.82,29.34,3,1,12,0.83
2012-10-30,35,32,32,34,32,31,98,97,96,29.34,29.25,3,1,10,0.01
2012-10-31,38,36,32,37,35,32,98,97,95,29.77,29.55,2,1,8,0.00
2012-11-1,44,38,36,41,37,35,98,95,86,29.84,29.75,2,0,7,0.00
2012-11-2,50,42,36,37,33,30,98,73,53,30.02,29.78,6,1,16,0.00
2012-11-3,46,41,38,37,33,30,94,74,63,30.15,30.02,3,1,7,0.00
2012-11-4,42,39,38,36,34,32,92,83,69,30.09,30.03,2,0,9,0.00
2012-11-5,46,37,29,32,30,27,92,75,56,30.16,30.08,2,0,7,0.00
2012-11-6,55,39,27,37,31,25,97,77,46,30.10,29.89,3,0,7,0.00
2012-11-7,47,37,28,38,31,27,98,81,58,30.02,29.86,2,0,5,0.00
2012-11-8,48,35,24,32,28,23,97,78,50,30.20,30.02,3,1,9,0.00
2012-11-9,58,40,26,38,32,24,96,76,47,30.31,30.17,2,0,6,0.00
2012-11-10,72,50,31,45,37,30,96,68,30,30.31,30.18,3,0,10,0.00
2012-11-11,77,56,36,50,40,35,96,63,25,30.38,30.18,6,2,15,0.00
2012-11-12,72,61,39,56,50,36,94,69,54,30.32,29.96,10,4,20,0.00
2012-11-13,44,36,28,38,29,26,94,76,55,30.50,30.32,5,1,14,0.00
2012-11-14,46,34,24,32,27,23,96,80,54,30.51,30.33,3,0,5,0.00
2012-11-15,52,37,26,35,30,25,97,78,49,30.34,30.24,3,0,6,0.00
2012-11-16,52,37,26,36,30,25,97,78,49,30.46,30.29,4,0,7,0.00
2012-11-17,58,39,25,36,30,24,96,74,40,30.54,30.43,2,0,5,0.00
2012-11-18,63,41,26,37,31,24,96,71,35,30.51,30.36,2,0,6,0.00
2012-11-19,58,41,27,36,31,26,95,72,40,30.39,30.17,1,0,4,0.00
2012-11-20,58,43,34,38,34,31,92,74,44,30.17,30.05,2,0,6,0.00
2012-11-21,61,43,29,40,32,28,96,69,32,30.22,30.10,2,0,6,0.00
2012-11-22,65,43,28,39,32,26,95,70,34,30.27,30.05,2,0,5,0.00
2012-11-23,61,43,32,48,37,25,96,80,56,30.06,29.85,8,2,17,0.00
2012-11-24,33,30,28,26,24,21,90,77,67,30.16,30.05,7,1,18,0.00
2012-11-25,48,36,29,27,23,20,82,61,35,30.12,29.91,3,1,12,0.00
2012-11-26,55,44,30,40,32,26,88,65,41,30.18,30.02,3,0,5,0.00
2012-11-27,43,38,36,40,36,33,96,92,85,30.29,30.12,6,0,6,0.00
2012-11-28,42,35,27,34,30,25,94,83,61,30.42,30.26,3,0,7,0.00
2012-11-29,50,33,22,32,26,20,95,77,42,30.48,30.29,2,0,6,0.00
2012-11-30,59,40,27,41,32,24,94,77,44,30.36,30.20,3,0,9,0.00
2012-12-1,63,45,31,48,39,30,99,80,55,30.36,30.22,2,0,7,0.00
2012-12-2,64,50,37,54,46,36,99,89,58,30.23,30.08,4,0,13,0.00
2012-12-3,68,57,48,60,55,48,100,92,73,30.22,30.11,3,0,6,0.00
2012-12-4,69,54,42,58,51,41,100,90,65,30.19,30.00,9,1,16,0.00
2012-12-5,52,45,33,50,40,30,98,85,63,30.29,30.08,7,1,13,0.00
2012-12-6,58,41,26,46,35,25,97,80,53,30.28,30.02,1,0,4,0.00
2012-12-7,55,51,48,54,50,46,99,95,80,30.02,29.84,2,0,6,0.00
2012-12-8,61,57,53,56,54,50,98,90,80,29.97,29.82,3,0,9,0.00
2012-12-9,60,55,51,58,54,51,100,97,87,30.01,29.75,2,0,5,0.00
2012-12-10,63,53,37,56,50,36,99,90,74,29.83,29.52,10,1,20,0.00
2012-12-11,37,28,33,36,5,-100,96,72,82,30.23,29.82,3,-180,7,0.00
2012-12-12,41,15,28,33,-46,-100,98,33,66,30.42,30.23,3,-504,6,0.00
2012-12-13,50,17,25,37,-46,-100,98,29,38,30.45,30.25,1,-494,4,0.00
2012-12-14,53,20,24,37,-40,-100,96,29,39,30.38,30.18,3,-460,9,0.00
2012-12-15,56,23,30,43,-36,-100,96,30,40,30.18,29.89,2,-452,5,0.01
2012-12-16,60,55,48,54,49,39,95,81,60,29.89,29.70,4,1,12,0.00
2012-12-17,56,50,46,52,48,44,98,94,81,29.75,29.51,4,0,17,0.00
2012-12-18,47,42,35,45,40,32,94,89,83,29.87,29.55,5,2,14,0.00
2012-12-19,49,42,33,40,36,32,96,81,67,30.11,29.81,3,1,7,0.00
2012-12-20,52,43,31,44,38,30,98,84,54,30.07,29.39,8,3,22,0.00
2012-12-21,39,30,26,35,27,24,99,88,76,29.89,29.48,6,4,20,0.00
2012-12-22,30,28,19,27,24,17,95,86,76,30.18,29.89,5,2,13,0.00
2012-12-23,50,30,14,32,23,13,94,78,49,30.15,29.92,3,0,10,0.00
2012-12-24,44,33,26,44,32,24,99,96,92,29.98,29.77,2,0,5,0.00
2012-12-25,72,40,36,46,36,32,97,85,37,30.12,29.91,3,0,9,0.03
2012-12-26,51,41,35,42,37,32,97,88,63,30.04,29.42,12,1,15,0.94
2012-12-27,38,31,30,36,29,26,94,90,84,30.16,29.63,7,2,17,0.01
2012-12-28,37,33,31,32,30,28,92,88,80,30.15,29.87,2,0,5,0.02
2012-12-29,39,35,31,37,33,28,97,93,88,30.02,29.66,6,2,16,0.36
2012-12-30,32,28,22,30,24,20,94,87,79,30.44,30.02,6,1,13,0.00
2012-12-31,38,29,19,30,23,17,94,79,56,30.40,30.09,1,0,5,0.04
2013-1-1,38,34,33,34,33,26,98,94,62,30.11,29.97,1,0,6,0.11